CW5468 Weather Reports


Display with metric or nautical units.
time (UTC)temp
F
wind
direction
speed
MPH
gust
MPH
rain 1hr
in
rain 24hr
in
rain mn
in
humidity
%
barometer
mb
20181113043805 48 84 5.0 7.0 0.00 0.00 0.00 80 1025.8
20181113043305 48 100 3.0 7.0 0.00 0.00 0.00 79 1025.9
20181113042805 48 119 3.0 8.0 0.00 0.00 0.00 79 1025.9
20181113042305 48 116 3.0 7.0 0.00 0.00 0.00 79 1025.9
20181113041805 49 105 3.0 7.0 0.00 0.00 0.00 79 1025.8
20181113041305 49 110 1.0 8.0 0.00 0.00 0.00 79 1025.9
20181113040805 49 94 5.0 9.0 0.00 0.00 0.00 79 1025.9
20181113040304 49 114 5.0 9.0 0.00 0.00 0.00 79 1025.8
20181113035805 49 61 1.0 3.0 0.00 0.01 0.00 79 1025.9
20181113035304 49 147 1.0 7.0 0.00 0.01 0.00 79 1025.8
20181113034805 49 85 3.0 8.0 0.00 0.01 0.00 79 1025.8
20181113034304 49 116 1.0 3.0 0.00 0.01 0.00 79 1025.7
20181113033805 49 126 2.0 5.0 0.00 0.01 0.00 78 1025.7
20181113033305 49 138 1.0 5.0 0.00 0.01 0.00 79 1025.7
20181113032805 49 147 2.0 8.0 0.00 0.01 0.00 79 1025.8
20181113032305 49 129 5.0 9.0 0.00 0.01 0.00 79 1025.9
20181113031805 49 142 2.0 8.0 0.00 0.01 0.00 79 1025.8
20181113031304 49 107 5.0 8.0 0.00 0.01 0.00 80 1025.8
20181113030804 49 117 3.0 8.0 0.00 0.01 0.00 79 1025.8
20181113030304 49 112 1.0 3.0 0.00 0.01 0.00 79 1025.8
20181113025805 49 121 5.0 8.0 0.00 0.01 0.00 80 1025.8
20181113025304 49 87 5.0 9.0 0.00 0.01 0.00 81 1025.8
20181113024804 48 109 4.0 8.0 0.00 0.01 0.00 82 1025.8
20181113024304 48 144 1.0 3.0 0.00 0.01 0.00 81 1025.8
20181113023804 48 215 0.0 0.0 0.00 0.01 0.00 80 1025.8
20181113023304 48 216 0.0 0.0 0.00 0.01 0.00 80 1025.9
20181113022805 48 216 0.0 2.0 0.00 0.01 0.00 79 1025.9
20181113022304 49 215 1.0 3.0 0.00 0.01 0.00 79 1025.8
20181113021805 49 138 0.0 0.0 0.00 0.01 0.00 79 1025.9
20181113021305 50 138 1.0 5.0 0.00 0.01 0.00 79 1025.9
20181113020805 49 99 2.0 5.0 0.00 0.01 0.00 80 1026.0
20181113020304 49 94 2.0 7.0 0.00 0.01 0.00 80 1026.0
20181113015805 49 98 0.0 5.0 0.00 0.01 0.00 80 1026.2
20181113015304 49 85 1.0 3.0 0.00 0.01 0.00 81 1026.3
20181113014805 49 80 1.0 5.0 0.00 0.01 0.00 80 1026.3
20181113014304 49 80 2.0 3.0 0.00 0.01 0.00 80 1026.4
20181113013804 49 271 0.0 0.0 0.00 0.01 0.00 80 1026.5
20181113013305 49 271 0.0 0.0 0.00 0.01 0.00 80 1026.5
20181113012805 49 271 0.0 0.0 0.00 0.01 0.00 79 1026.4
20181113012305 49 271 1.0 3.0 0.00 0.01 0.00 79 1026.3
20181113011805 50 296 1.0 2.0 0.00 0.01 0.00 79 1026.2
20181113011304 50 296 1.0 3.0 0.00 0.01 0.00 78 1026.1
20181113010805 50 296 0.0 1.0 0.00 0.01 0.00 78 1026.0
20181113010305 50 318 1.0 3.0 0.00 0.01 0.00 77 1025.9
20181113005805 51 0 1.0 2.0 0.00 0.01 0.00 77 1026.0
20181113005305 51 355 0.0 0.0 0.00 0.01 0.00 77 1026.0
20181113004805 51 355 0.0 0.0 0.00 0.01 0.00 77 1026.0
20181113004305 51 355 0.0 2.0 0.00 0.01 0.00 76 1026.0
20181113003805 51 355 0.0 2.0 0.00 0.01 0.00 76 1025.9
20181113003305 52 355 1.0 3.0 0.00 0.01 0.00 76 1026.0
20181113002805 52 101 0.0 3.0 0.00 0.01 0.00 76 1025.9
20181113002305 52 104 0.0 0.0 0.00 0.01 0.00 76 1026.0
20181113001805 52 104 0.0 0.0 0.00 0.01 0.00 76 1026.0
20181113001305 52 104 0.0 0.0 0.00 0.01 0.00 76 1026.0
20181113000805 52 104 0.0 2.0 0.00 0.01 0.00 76 1026.1
20181113000305 52 104 0.0 2.0 0.00 0.01 0.00 76 1026.2
20181112235805 52 104 0.0 3.0 0.00 0.01 0.00 76 1026.2
20181112235305 52 129 2.0 3.0 0.00 0.01 0.00 76 1026.2
20181112234805 52 78 1.0 6.0 0.00 0.01 0.00 76 1026.2
20181112234305 52 79 2.0 5.0 0.00 0.01 0.00 76 1026.2
20181112233805 52 84 3.0 5.0 0.00 0.01 0.00 76 1026.3
20181112233305 52 85 0.0 2.0 0.00 0.01 0.00 76 1026.3
20181112232805 52 88 2.0 3.0 0.00 0.01 0.00 76 1026.3
20181112232305 52 100 0.0 0.0 0.00 0.01 0.00 76 1026.4
20181112231805 52 99 0.0 2.0 0.00 0.01 0.00 75 1026.3
20181112231305 52 74 2.0 5.0 0.00 0.01 0.00 75 1026.2
20181112230810 52 100 1.0 3.0 0.00 0.01 0.00 75 1026.2
20181112230305 52 74 1.0 3.0 0.00 0.01 0.00 76 1026.2
20181112225805 52 70 1.0 6.0 0.00 0.01 0.01 76 1026.1
20181112225305 52 88 2.0 7.0 0.00 0.01 0.01 76 1026.1
20181112224805 52 81 1.0 3.0 0.00 0.01 0.01 76 1026.1
20181112224305 52 82 1.0 3.0 0.00 0.01 0.01 76 1026.1
20181112223805 52 56 1.0 3.0 0.00 0.01 0.01 76 1026.2
20181112223305 52 62 0.0 2.0 0.00 0.01 0.01 76 1026.2
20181112222804 52 66 1.0 3.0 0.00 0.01 0.01 76 1026.2
20181112222305 52 67 0.0 0.0 0.00 0.01 0.01 76 1026.2
20181112221804 52 67 0.0 0.0 0.00 0.01 0.01 76 1026.1
20181112221305 53 67 0.0 0.0 0.00 0.01 0.01 76 1026.0
20181112220804 53 67 0.0 2.0 0.00 0.01 0.01 76 1026.0
20181112220305 53 80 0.0 0.0 0.00 0.01 0.01 75 1026.0
20181112215804 53 80 0.0 0.0 0.00 0.01 0.01 75 1026.0
20181112215305 53 80 0.0 0.0 0.00 0.01 0.01 74 1026.0
20181112214804 53 80 0.0 0.0 0.00 0.01 0.01 74 1026.0
20181112214305 54 80 0.0 0.0 0.00 0.01 0.01 74 1026.0
20181112213804 54 80 0.0 0.0 0.00 0.01 0.01 73 1026.0
20181112213304 54 80 0.0 0.0 0.00 0.01 0.01 73 1025.9
20181112212804 55 80 0.0 0.0 0.00 0.01 0.01 72 1025.9
20181112212304 55 80 0.0 0.0 0.00 0.01 0.01 72 1025.9
20181112211804 55 80 0.0 0.0 0.00 0.01 0.01 72 1025.9
20181112211304 55 80 0.0 1.0 0.00 0.01 0.01 72 1025.9
20181112210805 55 84 1.0 2.0 0.00 0.01 0.01 72 1025.8
20181112210304 55 94 0.0 0.0 0.00 0.01 0.01 72 1025.8
20181112205804 55 94 0.0 1.0 0.00 0.01 0.01 72 1025.8
20181112205304 55 105 1.0 2.0 0.00 0.01 0.01 72 1025.8
20181112204804 55 110 0.0 0.0 0.00 0.01 0.01 72 1025.9
20181112204304 55 110 0.0 0.0 0.00 0.01 0.01 72 1025.8
20181112203805 55 113 1.0 5.0 0.00 0.01 0.01 72 1025.9
20181112203304 55 94 2.0 7.0 0.00 0.01 0.01 72 1025.9
20181112202804 55 84 4.0 7.0 0.00 0.01 0.01 72 1025.9
20181112202304 55 75 4.0 6.0 0.00 0.01 0.01 72 1025.9
20181112201804 55 84 3.0 6.0 0.00 0.01 0.01 73 1025.9
20181112201305 55 65 0.0 2.0 0.00 0.01 0.01 73 1025.8
20181112200805 55 65 0.0 2.0 0.00 0.01 0.01 73 1025.8
20181112200304 55 65 1.0 2.0 0.00 0.01 0.01 73 1025.8
20181112195805 55 91 0.0 2.0 0.00 0.01 0.01 73 1025.9
20181112195305 55 91 1.0 3.0 0.00 0.01 0.01 73 1025.8
20181112194804 56 291 1.0 3.0 0.00 0.01 0.01 72 1025.8
20181112194305 56 280 3.0 5.0 0.00 0.01 0.01 71 1025.8
20181112193804 56 267 3.0 5.0 0.00 0.01 0.01 71 1025.7
20181112193304 56 144 0.0 2.0 0.00 0.01 0.01 71 1025.6
20181112192804 56 130 2.0 5.0 0.00 0.01 0.01 71 1025.6
20181112192304 56 71 1.0 3.0 0.00 0.01 0.01 71 1025.6
20181112191804 56 75 3.0 7.0 0.00 0.01 0.01 71 1025.6
20181112191305 56 88 5.0 8.0 0.00 0.01 0.01 71 1025.6
20181112190805 56 98 4.0 7.0 0.00 0.01 0.01 71 1025.7
20181112190304 56 98 3.0 8.0 0.00 0.01 0.01 72 1025.8
20181112185804 56 194 0.0 1.0 0.00 0.01 0.01 72 1025.8
20181112185305 56 196 0.0 1.0 0.00 0.01 0.01 72 1025.8
20181112184804 56 206 0.0 0.0 0.00 0.01 0.01 72 1025.8
20181112184304 56 206 0.0 2.0 0.00 0.01 0.01 72 1025.8
20181112183805 56 252 0.0 3.0 0.00 0.01 0.01 72 1025.8
20181112183304 56 273 1.0 3.0 0.00 0.01 0.01 72 1025.8
20181112182804 56 123 1.0 7.0 0.00 0.01 0.01 72 1025.8
20181112182304 56 203 0.0 3.0 0.00 0.01 0.01 72 1025.8
20181112181804 56 226 1.0 3.0 0.00 0.01 0.01 72 1025.8
20181112181304 56 292 0.0 2.0 0.00 0.01 0.01 72 1025.7
20181112180805 56 292 2.0 3.0 0.00 0.01 0.01 72 1025.7
20181112180304 56 217 2.0 6.0 0.00 0.01 0.01 72 1025.5
20181112175805 56 117 2.0 6.0 0.00 0.01 0.01 72 1025.5
20181112175305 56 143 1.0 9.0 0.00 0.01 0.01 72 1025.6
20181112174805 56 123 3.0 8.0 0.00 0.01 0.01 72 1025.5
20181112174305 56 80 5.0 13.0 0.00 0.01 0.01 72 1025.4
20181112173805 56 93 5.0 13.0 0.00 0.01 0.01 72 1025.4
20181112173304 56 102 8.0 14.0 0.00 0.01 0.01 72 1025.4
20181112172805 56 99 6.0 13.0 0.00 0.01 0.01 73 1025.4
20181112172305 56 84 4.0 10.0 0.00 0.01 0.01 73 1025.4
20181112171804 56 87 6.0 14.0 0.00 0.01 0.01 73 1025.4
20181112171305 56 88 5.0 13.0 0.00 0.01 0.01 73 1025.4
20181112170805 56 99 7.0 17.0 0.00 0.01 0.01 73 1025.3
20181112170304 56 89 7.0 15.0 0.00 0.01 0.01 73 1025.4
20181112165804 56 88 5.0 12.0 0.00 0.01 0.01 73 1025.4
20181112165305 56 75 7.0 15.0 0.00 0.01 0.01 73 1025.4
20181112164804 56 81 7.0 15.0 0.00 0.01 0.01 74 1025.4
20181112164304 56 73 7.0 13.0 0.00 0.01 0.01 74 1025.3
20181112163805 56 85 5.0 10.0 0.00 0.01 0.01 74 1025.3
20181112163304 56 98 9.0 15.0 0.00 0.01 0.01 74 1025.2
20181112162804 56 79 6.0 13.0 0.00 0.01 0.01 74 1025.3
20181112162305 56 88 6.0 14.0 0.00 0.01 0.01 74 1025.3
20181112161804 56 91 7.0 12.0 0.00 0.01 0.01 74 1025.3
20181112161304 56 87 5.0 12.0 0.00 0.01 0.01 74 1025.2
20181112160805 56 85 5.0 14.0 0.00 0.01 0.01 74 1025.1
20181112160305 56 76 7.0 15.0 0.00 0.01 0.01 74 1025.1
20181112155804 56 79 5.0 14.0 0.00 0.01 0.01 74 1025.0
20181112155305 57 83 7.0 12.0 0.00 0.01 0.01 74 1024.9
20181112154805 57 96 6.0 12.0 0.00 0.01 0.01 74 1025.0
20181112154306 57 62 6.0 12.0 0.00 0.01 0.01 73 1024.9
20181112153804 57 73 6.0 12.0 0.00 0.01 0.01 73 1024.9
20181112153304 57 84 6.0 10.0 0.00 0.01 0.01 73 1024.9
20181112152804 57 98 6.0 10.0 0.00 0.01 0.01 72 1024.9
20181112152305 58 100 5.0 12.0 0.00 0.01 0.01 72 1024.8
20181112151805 58 93 5.0 13.0 0.00 0.01 0.01 72 1024.9
20181112151304 58 88 3.0 12.0 0.00 0.01 0.01 72 1024.8
20181112150804 58 100 6.0 12.0 0.00 0.01 0.01 72 1024.8
20181112150304 58 88 6.0 13.0 0.00 0.01 0.01 71 1024.8
20181112145804 58 90 5.0 10.0 0.00 0.01 0.01 71 1024.8
20181112145304 58 83 5.0 10.0 0.00 0.01 0.01 71 1024.8
20181112144304 58 92 3.0 8.0 0.00 0.01 0.01 71 1024.7
20181112143804 58 83 5.0 9.0 0.00 0.01 0.01 71 1024.7
20181112143304 58 81 3.0 8.0 0.00 0.01 0.01 71 1024.7
20181112142804 58 110 5.0 9.0 0.00 0.01 0.01 71 1024.7
20181112142304 58 91 3.0 9.0 0.00 0.01 0.01 70 1024.7
20181112141804 58 150 2.0 7.0 0.00 0.01 0.01 70 1024.8
20181112141305 59 119 2.0 5.0 0.00 0.01 0.01 70 1024.7
20181112140804 59 103 3.0 6.0 0.00 0.01 0.01 70 1024.8
20181112140305 59 131 1.0 7.0 0.00 0.01 0.01 69 1024.8
20181112135804 59 120 4.0 9.0 0.00 0.01 0.01 69 1024.8
20181112135304 59 87 5.0 9.0 0.00 0.01 0.01 69 1024.8
20181112134804 59 120 5.0 9.0 0.00 0.01 0.01 69 1024.7
20181112134304 59 98 4.0 13.0 0.00 0.01 0.01 68 1024.7
20181112133804 59 107 6.0 12.0 0.00 0.01 0.01 68 1024.7
20181112133304 60 102 6.0 14.0 0.00 0.01 0.01 68 1024.7
20181112132804 60 131 5.0 12.0 0.00 0.01 0.01 67 1024.8
20181112132306 60 94 3.0 8.0 0.00 0.01 0.01 67 1024.8
20181112131805 61 75 5.0 12.0 0.00 0.01 0.01 66 1024.9
20181112131306 61 103 4.0 8.0 0.00 0.01 0.01 66 1025.0
20181112130805 61 146 2.0 6.0 0.00 0.01 0.01 67 1025.1
20181112130306 61 129 3.0 9.0 0.00 0.01 0.01 66 1025.2
20181112125805 61 113 2.0 5.0 0.00 0.01 0.01 67 1025.2
20181112125306 61 66 5.0 8.0 0.00 0.01 0.01 66 1025.5
20181112124805 61 127 2.0 8.0 0.00 0.01 0.01 66 1025.5
20181112124306 61 95 4.0 8.0 0.00 0.01 0.01 66 1025.5
20181112123805 61 113 2.0 7.0 0.00 0.01 0.01 67 1025.5
20181112123305 60 132 2.0 9.0 0.00 0.01 0.01 68 1025.5
20181112122806 60 76 1.0 3.0 0.00 0.01 0.01 68 1025.6
20181112122306 60 89 3.0 5.0 0.00 0.01 0.01 69 1025.6
20181112121806 60 95 2.0 5.0 0.00 0.01 0.01 69 1025.6
20181112121305 59 88 2.0 6.0 0.00 0.01 0.01 69 1025.7
20181112120806 59 116 5.0 8.0 0.00 0.01 0.01 69 1025.7
20181112120306 59 94 3.0 5.0 0.00 0.01 0.01 69 1025.7
20181112115805 59 80 3.0 7.0 0.00 0.01 0.01 69 1025.7
20181112115306 59 78 3.0 5.0 0.00 0.01 0.01 69 1025.7
20181112114805 59 92 3.0 7.0 0.00 0.01 0.01 69 1025.8
20181112114305 59 113 2.0 5.0 0.00 0.01 0.01 70 1025.8
20181112113805 59 85 4.0 6.0 0.00 0.01 0.01 70 1025.9
20181112113306 59 66 3.0 6.0 0.00 0.01 0.01 70 1025.9
20181112112806 58 84 2.0 5.0 0.00 0.01 0.01 70 1026.1
20181112112306 58 84 4.0 8.0 0.00 0.01 0.01 70 1026.1
20181112111805 58 92 3.0 5.0 0.00 0.01 0.01 70 1026.0
20181112111305 58 63 2.0 6.0 0.00 0.01 0.01 70 1026.0
20181112110806 58 76 3.0 6.0 0.00 0.01 0.01 71 1026.0
20181112110305 58 87 3.0 6.0 0.00 0.01 0.01 71 1026.0
20181112105805 58 86 2.0 3.0 0.00 0.01 0.01 72 1026.0
20181112105306 58 55 1.0 3.0 0.00 0.01 0.01 72 1026.1
20181112104806 57 71 2.0 5.0 0.00 0.01 0.01 73 1026.1
20181112104305 57 54 1.0 3.0 0.00 0.01 0.01 73 1026.2
20181112103806 57 78 2.0 5.0 0.00 0.01 0.01 74 1026.2
20181112103306 57 60 1.0 8.0 0.00 0.01 0.01 74 1026.2
20181112102805 57 67 3.0 6.0 0.00 0.01 0.01 74 1026.3
20181112102305 56 108 2.0 5.0 0.00 0.01 0.01 74 1026.3
20181112101805 56 90 3.0 6.0 0.00 0.01 0.01 74 1026.3
20181112101305 56 84 3.0 6.0 0.00 0.01 0.01 74 1026.3
20181112100805 56 91 2.0 5.0 0.00 0.01 0.01 74 1026.3
20181112100306 56 86 2.0 6.0 0.00 0.01 0.01 75 1026.3
20181112095806 56 112 2.0 5.0 0.00 0.01 0.01 75 1026.3
20181112095307 55 66 2.0 5.0 0.00 0.01 0.01 76 1026.3
20181112094806 55 75 2.0 3.0 0.00 0.01 0.01 76 1026.4
20181112094306 55 77 3.0 7.0 0.00 0.01 0.01 76 1026.3
20181112093805 54 78 1.0 3.0 0.00 0.01 0.01 78 1026.4
20181112093305 54 55 1.0 5.0 0.00 0.01 0.01 78 1026.3
20181112092805 53 127 3.0 6.0 0.00 0.01 0.01 79 1026.4
20181112092306 53 113 5.0 9.0 0.00 0.01 0.01 79 1026.4
20181112091805 52 91 3.0 6.0 0.00 0.01 0.01 81 1026.4
20181112091305 52 106 3.0 7.0 0.00 0.01 0.01 81 1026.4
20181112090805 51 83 4.0 8.0 0.00 0.01 0.01 82 1026.5
20181112090305 51 89 0.0 0.0 0.00 0.01 0.01 82 1026.5
20181112085805 51 109 0.0 2.0 0.00 0.01 0.01 82 1026.6
20181112085305 51 111 1.0 3.0 0.00 0.01 0.01 83 1026.6
20181112084805 51 129 3.0 7.0 0.00 0.01 0.01 83 1026.6
20181112084305 50 95 2.0 5.0 0.00 0.01 0.01 83 1026.5
20181112083805 50 61 1.0 3.0 0.00 0.01 0.01 84 1026.5
20181112083305 50 68 1.0 2.0 0.00 0.01 0.01 84 1026.4
20181112082806 50 52 1.0 3.0 0.00 0.01 0.01 85 1026.3
20181112082307 50 34 0.0 2.0 0.00 0.01 0.01 86 1026.4
20181112081806 49 13 1.0 3.0 0.00 0.01 0.01 86 1026.4
20181112081305 49 0 1.0 3.0 0.00 0.01 0.01 86 1026.3
20181112080805 49 0 0.0 3.0 0.00 0.01 0.01 86 1026.4
20181112080305 49 288 1.0 3.0 0.00 0.01 0.01 86 1026.4
20181112075805 49 288 0.0 1.0 0.00 0.01 0.01 86 1026.4
20181112075306 49 288 0.0 3.0 0.00 0.01 0.01 86 1026.3
20181112074805 49 288 0.0 2.0 0.00 0.01 0.01 86 1026.2
20181112074305 49 288 0.0 3.0 0.00 0.01 0.01 86 1026.2
20181112073805 48 288 0.0 2.0 0.00 0.01 0.01 86 1026.2
20181112073305 48 288 1.0 3.0 0.00 0.01 0.01 86 1026.1
20181112072805 49 323 0.0 3.0 0.00 0.01 0.01 86 1026.0
20181112072306 48 29 0.0 1.0 0.00 0.01 0.01 87 1026.1
20181112071805 48 130 1.0 3.0 0.00 0.01 0.01 87 1026.0
20181112071306 48 94 3.0 6.0 0.00 0.01 0.01 87 1026.0
20181112070805 47 110 1.0 3.0 0.00 0.01 0.01 88 1026.0
20181112070305 47 138 0.0 5.0 0.00 0.01 0.01 88 1026.1
20181112065806 47 144 2.0 3.0 0.00 0.01 0.01 88 1026.1
20181112065305 47 145 1.0 3.0 0.00 0.01 0.01 88 1026.1
20181112064805 47 118 3.0 5.0 0.00 0.01 0.01 89 1026.0
20181112064306 46 90 1.0 3.0 0.00 0.01 0.01 89 1026.1
20181112063805 46 155 1.0 3.0 0.00 0.01 0.01 89 1026.1
20181112063305 46 155 1.0 2.0 0.00 0.01 0.01 89 1026.1
20181112062806 46 128 2.0 5.0 0.00 0.01 0.01 89 1025.9
20181112062305 46 112 0.0 3.0 0.00 0.01 0.01 89 1025.7
20181112061805 46 153 0.0 2.0 0.00 0.01 0.01 89 1025.6
20181112061305 45 154 0.0 1.0 0.00 0.01 0.01 89 1025.7
20181112060804 45 132 1.0 5.0 0.00 0.01 0.01 89 1025.6
20181112060305 45 96 1.0 5.0 0.00 0.01 0.01 89 1025.5
20181112055805 45 109 1.0 3.0 0.00 0.01 0.01 89 1025.4
20181112055304 45 134 1.0 3.0 0.00 0.01 0.01 89 1025.3
20181112054805 45 124 2.0 3.0 0.00 0.01 0.01 89 1025.2
20181112054305 45 107 0.0 2.0 0.00 0.01 0.01 89 1025.3
20181112053805 45 107 1.0 3.0 0.00 0.01 0.01 89 1025.2
20181112053305 45 105 1.0 5.0 0.00 0.01 0.01 89 1025.2
20181112052805 46 147 0.0 3.0 0.00 0.01 0.01 90 1025.1
20181112052305 46 113 1.0 5.0 0.00 0.01 0.01 90 1025.0
20181112051806 46 82 1.0 2.0 0.00 0.01 0.01 90 1025.0
20181112051305 45 103 0.0 3.0 0.00 0.01 0.01 90 1025.0
20181112050805 45 135 1.0 3.0 0.00 0.01 0.01 90 1025.0
20181112050305 45 130 3.0 7.0 0.00 0.01 0.01 91 1024.9
20181112045805 45 105 4.0 7.0 0.01 0.01 0.01 90 1024.9
20181112045305 45 88 2.0 5.0 0.01 0.01 0.01 90 1024.8
20181112044805 45 215 0.0 2.0 0.01 0.01 0.01 90 1024.8
20181112044305 45 219 1.0 3.0 0.01 0.01 0.01 90 1024.8